When you browse on this site, cookies collect data to enhance your experience and personalize the content and advertising you see.
Visit our Privacy Policy to learn more. By continuing to use the site, you agree to this use of cookies and data.
  • In Romania
  • List of Countries
  • For 7 days
  • Water Temperature
  • Satellite Maps
  • Weather Map
  • Weather Widgets
  • user-avatar
    Login

    Hourly Weather Kresty

    Today, 19 July, Friday

    Time Temperature Precipitation Wind Pressure Humidity
    00:00 +13°C° 0 mm 1 mps 738 mmHg 95%
    01:00 +13°C° 0 mm 1 mps 739 mmHg 94%
    02:00 +13°C° 0 mm 1 mps 739 mmHg 94%
    03:00 +13°C° 0.3 mm 1 mps 739 mmHg 95%
    04:00 +13°C° 0.3 mm 1 mps 739 mmHg 95%
    05:00 +13°C° 0.3 mm 1 mps 739 mmHg 96%
    06:00 +15°C° 0.3 mm 1 mps 739 mmHg 91%
    07:00 +16°C° 0.3 mm 1 mps 739 mmHg 87%
    08:00 +18°C° 0.3 mm 1 mps 739 mmHg 83%
    09:00 +19°C° 0.7 mm 1 mps 739 mmHg 82%
    10:00 +19°C° 0.7 mm 1 mps 739 mmHg 82%
    11:00 +19°C° 0.7 mm 2 mps 739 mmHg 81%
    12:00 +20°C° 0.9 mm 1 mps 739 mmHg 81%
    13:00 +20°C° 0.9 mm 1 mps 738 mmHg 81%
    14:00 +20°C° 0.9 mm 1 mps 738 mmHg 81%
    15:00 +20°C° 0.4 mm 1 mps 738 mmHg 82%
    16:00 +20°C° 0.4 mm 1 mps 738 mmHg 83%
    17:00 +19°C° 0.4 mm 1 mps 738 mmHg 84%
    18:00 +18°C° 0.1 mm 1 mps 738 mmHg 87%
    19:00 +16°C° 0.1 mm 1 mps 738 mmHg 90%
    20:00 +15°C° 0.1 mm 1 mps 738 mmHg 93%
    21:00 +14°C° 0.2 mm 1 mps 739 mmHg 93%
    22:00 +13°C° 0.2 mm 0 mps 739 mmHg 94%
    23:00 +12°C° 0.2 mm 0 mps 739 mmHg 94%

    Tomorrow, 20 July, Saturday

    Time Temperature Precipitation Wind Pressure Humidity
    00:00 +12°C° 0 mm 0 mps 739 mmHg 95%
    01:00 +12°C° 0 mm 1 mps 739 mmHg 95%
    02:00 +12°C° 0 mm 1 mps 739 mmHg 96%
    03:00 +13°C° 0.1 mm 1 mps 740 mmHg 96%
    04:00 +13°C° 0.1 mm 1 mps 740 mmHg 96%
    05:00 +14°C° 0.1 mm 1 mps 740 mmHg 96%
    06:00 +15°C° 0.3 mm 1 mps 740 mmHg 94%
    07:00 +16°C° 0.3 mm 2 mps 741 mmHg 92%
    08:00 +16°C° 0.3 mm 2 mps 741 mmHg 91%
    09:00 +17°C° 0.1 mm 2 mps 741 mmHg 89%
    10:00 +17°C° 0.1 mm 3 mps 742 mmHg 87%
    11:00 +18°C° 0.1 mm 3 mps 742 mmHg 85%
    12:00 +18°C° 0.5 mm 3 mps 742 mmHg 84%
    13:00 +19°C° 0.5 mm 3 mps 742 mmHg 84%
    14:00 +19°C° 0.5 mm 3 mps 742 mmHg 83%
    15:00 +19°C° 1.1 mm 3 mps 742 mmHg 86%
    16:00 +18°C° 1.1 mm 3 mps 743 mmHg 89%
    17:00 +18°C° 1.1 mm 3 mps 743 mmHg 91%
    18:00 +17°C° 0.3 mm 3 mps 743 mmHg 93%
    19:00 +17°C° 0.3 mm 3 mps 743 mmHg 94%
    20:00 +16°C° 0.3 mm 2 mps 743 mmHg 96%
    21:00 +14°C° 0.1 mm 3 mps 744 mmHg 96%
    22:00 +14°C° 0.1 mm 3 mps 744 mmHg 97%
    23:00 +14°C° 0.1 mm 3 mps 744 mmHg 97%

    Day after tomorrow, 21 July, Sunday

    Time Temperature Precipitation Wind Pressure Humidity
    00:00 +13°C° 0 mm 3 mps 744 mmHg 98%
    01:00 +13°C° 0 mm 3 mps 744 mmHg 98%
    02:00 +13°C° 0 mm 3 mps 745 mmHg 98%
    03:00 +13°C° 0 mm 3 mps 745 mmHg 98%
    04:00 +12°C° 0 mm 3 mps 745 mmHg 97%
    05:00 +12°C° 0 mm 3 mps 745 mmHg 97%
    06:00 +14°C° 0 mm 3 mps 746 mmHg 93%
    07:00 +16°C° 0 mm 3 mps 746 mmHg 89%
    08:00 +17°C° 0 mm 3 mps 746 mmHg 85%
    09:00 +19°C° 0 mm 3 mps 746 mmHg 74%
    10:00 +21°C° 0 mm 3 mps 746 mmHg 63%
    11:00 +24°C° 0 mm 3 mps 747 mmHg 52%
    12:00 +24°C° 0 mm 3 mps 747 mmHg 50%
    13:00 +23°C° 0 mm 4 mps 747 mmHg 47%
    14:00 +25°C° 0 mm 4 mps 747 mmHg 44%
    15:00 +25°C° 0 mm 3 mps 747 mmHg 47%
    16:00 +24°C° 0 mm 3 mps 747 mmHg 50%
    17:00 +24°C° 0 mm 2 mps 747 mmHg 53%
    18:00 +21°C° 0 mm 2 mps 747 mmHg 61%
    19:00 +19°C° 0 mm 2 mps 747 mmHg 68%
    20:00 +17°C° 0 mm 2 mps 747 mmHg 75%
    21:00 +16°C° 0 mm 2 mps 747 mmHg 77%
    22:00 +15°C° 0 mm 2 mps 747 mmHg 80%
    23:00 +14°C° 0 mm 2 mps 747 mmHg 82%

    22 July, Monday

    Time Temperature Precipitation Wind Pressure Humidity
    00:00 +13°C° 0 mm 1 mps 747 mmHg 85%
    01:00 +12°C° 0 mm 1 mps 748 mmHg 89%
    02:00 +12°C° 0 mm 1 mps 748 mmHg 92%
    03:00 +12°C° 0 mm 1 mps 748 mmHg 91%
    04:00 +13°C° 0 mm 1 mps 748 mmHg 90%
    05:00 +13°C° 0 mm 1 mps 748 mmHg 88%
    06:00 +15°C° 0 mm 1 mps 748 mmHg 80%
    07:00 +18°C° 0 mm 1 mps 748 mmHg 72%
    08:00 +20°C° 0 mm 1 mps 748 mmHg 64%
    09:00 +21°C° 0 mm 1 mps 748 mmHg 59%
    10:00 +23°C° 0 mm 1 mps 747 mmHg 55%
    11:00 +24°C° 0 mm 1 mps 747 mmHg 50%
    12:00 +24°C° 0 mm 1 mps 747 mmHg 48%
    13:00 +25°C° 0 mm 1 mps 747 mmHg 47%
    14:00 +25°C° 0 mm 1 mps 747 mmHg 45%
    15:00 +25°C° 0 mm 1 mps 747 mmHg 49%
    16:00 +24°C° 0 mm 1 mps 747 mmHg 53%
    17:00 +24°C° 0 mm 1 mps 747 mmHg 56%
    18:00 +22°C° 0 mm 1 mps 747 mmHg 62%
    19:00 +20°C° 0 mm 1 mps 747 mmHg 68%
    20:00 +18°C° 0 mm 1 mps 747 mmHg 73%
    21:00 +16°C° 0 mm 1 mps 747 mmHg 76%
    22:00 +14°C° 0 mm 1 mps 747 mmHg 79%
    23:00 +13°C° 0 mm 1 mps 747 mmHg 82%

    23 July, Tuesday

    Time Temperature Precipitation Wind Pressure Humidity
    00:00 +13°C° 0 mm 1 mps 747 mmHg 84%
    01:00 +12°C° 0 mm 1 mps 747 mmHg 87%
    02:00 +12°C° 0 mm 1 mps 747 mmHg 89%
    03:00 +12°C° 0 mm 1 mps 747 mmHg 88%
    04:00 +12°C° 0 mm 1 mps 747 mmHg 86%
    05:00 +13°C° 0 mm 2 mps 747 mmHg 85%
    06:00 +14°C° 0 mm 2 mps 747 mmHg 78%
    07:00 +16°C° 0 mm 2 mps 747 mmHg 71%
    08:00 +18°C° 0 mm 2 mps 747 mmHg 64%
    09:00 +19°C° 0 mm 2 mps 747 mmHg 60%
    10:00 +20°C° 0 mm 2 mps 747 mmHg 55%
    11:00 +23°C° 0 mm 2 mps 748 mmHg 50%
    12:00 +23°C° 0 mm 2 mps 747 mmHg 49%
    13:00 +23°C° 0 mm 2 mps 747 mmHg 48%
    14:00 +24°C° 0 mm 2 mps 747 mmHg 48%
    15:00 +23°C° 0 mm 2 mps 747 mmHg 49%
    16:00 +23°C° 0 mm 2 mps 747 mmHg 50%
    17:00 +23°C° 0 mm 2 mps 747 mmHg 51%
    18:00 +20°C° 0 mm 2 mps 748 mmHg 55%
    19:00 +18°C° 0 mm 2 mps 748 mmHg 60%
    20:00 +16°C° 0 mm 2 mps 748 mmHg 64%
    21:00 +15°C° 0 mm 2 mps 748 mmHg 67%
    22:00 +14°C° 0 mm 2 mps 748 mmHg 70%
    23:00 +13°C° 0 mm 2 mps 748 mmHg 73%

    24 July, Wednesday

    Time Temperature Precipitation Wind Pressure Humidity
    00:00 +12°C° 0 mm 1 mps 748 mmHg 76%
    01:00 +12°C° 0 mm 1 mps 748 mmHg 79%
    02:00 +11°C° 0 mm 1 mps 748 mmHg 82%
    03:00 +12°C° 0 mm 1 mps 748 mmHg 81%
    04:00 +12°C° 0 mm 1 mps 749 mmHg 80%
    05:00 +13°C° 0 mm 1 mps 749 mmHg 79%
    06:00 +14°C° 0 mm 1 mps 749 mmHg 77%
    07:00 +15°C° 0 mm 1 mps 748 mmHg 76%
    08:00 +16°C° 0 mm 1 mps 748 mmHg 74%
    09:00 +17°C° 0 mm 2 mps 749 mmHg 68%
    10:00 +18°C° 0 mm 2 mps 749 mmHg 62%
    11:00 +19°C° 0 mm 2 mps 749 mmHg 56%
    12:00 +19°C° 0 mm 2 mps 748 mmHg 57%
    13:00 +18°C° 0 mm 2 mps 748 mmHg 57%
    14:00 +18°C° 0 mm 2 mps 748 mmHg 57%
    15:00 +18°C° 0 mm 2 mps 748 mmHg 59%
    16:00 +19°C° 0 mm 2 mps 748 mmHg 61%
    17:00 +19°C° 0 mm 2 mps 748 mmHg 62%
    18:00 +18°C° 0 mm 2 mps 748 mmHg 71%
    19:00 +16°C° 0 mm 2 mps 748 mmHg 79%
    20:00 +15°C° 0 mm 2 mps 748 mmHg 87%
    21:00 +14°C° 0 mm 2 mps 748 mmHg 90%
    22:00 +13°C° 0 mm 2 mps 749 mmHg 92%
    23:00 +12°C° 0 mm 1 mps 749 mmHg 95%
    Show more